DW6345 Murcia ES current weather conditions

sailwx.info

Wind from 048 at 2 knots gusting 4

Air temperature 18.9° C
Dewpoint 14.4° C

Last reported at 2014-Oct-31 19:44 UTC.
Time now 2014-Nov-01 04:52 UTC

Location: N 37°60' W 001°06'.
View on Google Maps.

See reports from other nearby stations

  
Tides and Currents Weather Stations Pressure Air Temp Water Temp Dewpoint Dewpoint Depression Visibility Wind Speed Wind Dir Waves Ship Positions
date/time (UTC)wind fromknots sea level pressurealtimeterstation pressurevisibilityair tempwater tempwave heightnotes
2014-Oct-31 19:44 048 2 gusting 4 18.9
2014-Oct-31 19:34 092 1 gusting 5 18.9
2014-Oct-31 19:24 049 0 gusting 2 18.9
2014-Oct-31 19:14 090 0 gusting 2 19.4
2014-Oct-31 19:04 045 1 gusting 2 19.4
2014-Oct-31 18:54 094 0 gusting 2 20.0
2014-Oct-31 18:44 135 0 gusting 2 20.0
2014-Oct-31 18:34 135 0 gusting 4 20.0
2014-Oct-31 18:24 090 0 gusting 4 20.6
2014-Oct-31 18:14 137 0 gusting 2 20.6
2014-Oct-31 18:04 090 0 gusting 2 20.6
2014-Oct-31 17:54 137 0 gusting 4 20.6
2014-Oct-31 17:44 090 1 gusting 4 21.1
2014-Oct-31 17:34 090 1 gusting 5 21.7
2014-Oct-31 17:24 094 0 gusting 4 21.7
2014-Oct-31 17:14 090 1 gusting 4 22.2
2014-Oct-31 17:04 090 1 gusting 6 22.8
2014-Oct-31 16:54 090 4 gusting 6 22.8
2014-Oct-31 16:44 047 2 gusting 5 23.3
2014-Oct-31 16:34 050 1 gusting 6 23.9
2014-Oct-31 16:24 090 1 gusting 6 23.9
2014-Oct-31 16:14 090 2 gusting 6 23.9
2014-Oct-31 16:04 135 1 gusting 5 24.4
2014-Oct-31 15:54 047 3 gusting 6 25.0
2014-Oct-31 15:44 047 2 gusting 5 24.4
2014-Oct-31 15:34 096 2 gusting 6 25.0
2014-Oct-31 15:24 135 4 gusting 6 25.0
2014-Oct-31 15:14 047 4 gusting 6 25.0
2014-Oct-31 15:04 090 5 gusting 6 25.0
2014-Oct-31 14:54 090 2 gusting 6 25.6
2014-Oct-31 14:44 135 2 gusting 6 25.6
2014-Oct-31 14:34 089 1 gusting 8 25.6
2014-Oct-31 14:24 090 4 gusting 8 26.1
2014-Oct-31 14:14 135 1 gusting 5 26.1
2014-Oct-31 14:04 180 0 gusting 5 25.6
2014-Oct-31 13:54 137 1 gusting 5 25.6
2014-Oct-31 13:44 090 2 gusting 6 25.6
2014-Oct-31 13:34 093 1 gusting 6 25.6
2014-Oct-31 13:24 137 1 gusting 5 25.0
2014-Oct-31 13:14 180 0 gusting 6 24.4
2014-Oct-31 13:04 134 1 gusting 5 24.4
2014-Oct-31 12:54 135 3 gusting 6 23.9
2014-Oct-31 12:44 090 3 gusting 6 24.4
2014-Oct-31 12:34 135 3 gusting 6 25.0
2014-Oct-31 12:24 093 0 gusting 6 24.4
2014-Oct-31 12:14 133 1 gusting 8 24.4
2014-Oct-31 12:04 045 5 gusting 6 25.0
2014-Oct-31 11:54 180 1 gusting 5 24.4
2014-Oct-31 11:44 090 2 gusting 6 24.4
2014-Oct-31 11:34 090 2 gusting 5 24.4
2014-Oct-31 11:24 050 1 gusting 5 23.9
2014-Oct-31 11:14 049 1 gusting 4 23.3
2014-Oct-31 11:04 23.3
2014-Oct-31 10:54 133 0 gusting 4 22.8
2014-Oct-31 10:44 315 22.2
2014-Oct-31 10:34 012 0 gusting 4 22.2
2014-Oct-31 10:24 315 1 gusting 4 22.2
2014-Oct-31 10:14 096 0 gusting 4 21.7
2014-Oct-31 10:04 270 2 gusting 4 20.6
2014-Oct-31 09:54 271 0 gusting 4 20.0
2014-Oct-31 09:44 270 2 gusting 4 19.4
2014-Oct-31 09:34 265 2 gusting 5 19.4
2014-Oct-31 09:24 270 2 gusting 6 18.9
2014-Oct-31 09:14 011 4 gusting 6 18.9
2014-Oct-31 09:04 270 1 gusting 5 18.9
2014-Oct-31 08:54 315 2 gusting 6 18.3
2014-Oct-31 08:44 270 2 gusting 5 18.3
2014-Oct-31 08:34 270 0 gusting 5 18.3
2014-Oct-31 08:24 312 0 gusting 2 17.8
2014-Oct-31 08:14 315 0 gusting 2 17.8
2014-Oct-31 08:04 315 0 gusting 2 17.8
2014-Oct-31 07:54 273 1 gusting 4 17.8
2014-Oct-31 07:44 271 1 gusting 4 17.2
2014-Oct-31 07:34 315 1 gusting 4 17.2
2014-Oct-31 07:24 314 1 gusting 2 17.2
2014-Oct-31 07:14 315 1 gusting 2 17.2
2014-Oct-31 07:04 315 0 gusting 2 16.7
2014-Oct-31 06:54 276 0 gusting 2 16.7
2014-Oct-31 06:44 270 0 gusting 2 16.7
2014-Oct-31 06:34 270 1 gusting 2 16.7
2014-Oct-31 06:24 270 0 gusting 1 16.7
2014-Oct-31 06:14 228 0 gusting 2 16.7
2014-Oct-31 06:04 315 0 gusting 2 17.2
2014-Oct-31 05:54 270 1 gusting 4 17.2
2014-Oct-31 05:44 275 1 gusting 4 17.2
2014-Oct-31 05:34 270 2 gusting 5 17.2
2014-Oct-31 05:24 269 2 gusting 5 17.2
2014-Oct-31 05:14 270 0 gusting 2 17.2
2014-Oct-31 05:04 315 0 gusting 1 17.2
2014-Oct-31 04:54 273 0 gusting 2 17.2
2014-Oct-31 04:44 270 0 gusting 1 17.2
2014-Oct-31 04:34 270 0 gusting 2 17.2
2014-Oct-31 04:24 228 1 gusting 2 17.2
2014-Oct-31 04:14 270 0 gusting 2 17.2
2014-Oct-31 04:04 270 17.2
2014-Oct-31 03:54 309 0 gusting 2 17.2
2014-Oct-31 03:44 276 0 gusting 2 17.2
2014-Oct-31 03:34 270 0 gusting 2 17.8
2014-Oct-31 03:24 270 2 gusting 4 17.8
2014-Oct-31 03:14 270 0 gusting 4 17.8
2014-Oct-31 03:04 270 1 gusting 5 17.8
2014-Oct-31 02:54 228 2 gusting 5 17.8
2014-Oct-31 02:44 246 2 gusting 4 17.8
2014-Oct-31 02:34 225 0 gusting 2 17.8
2014-Oct-31 02:24 272 0 gusting 2 17.8
2014-Oct-31 02:14 314 0 gusting 2 17.8
2014-Oct-31 02:04 270 17.2
2014-Oct-31 01:54 280 0 gusting 2 17.2
2014-Oct-31 01:44 270 1 gusting 2 17.2
2014-Oct-31 01:34 273 0 gusting 2 16.7
2014-Oct-31 01:24 270 0 gusting 4 16.7
2014-Oct-31 01:14 188 2 gusting 5 16.7
2014-Oct-31 01:04 225 2 gusting 5 16.7
2014-Oct-31 00:54 228 1 gusting 4 17.2
2014-Oct-31 00:44 248 1 gusting 4 17.2
2014-Oct-31 00:35 248 1 gusting 4 17.2
2014-Oct-31 00:25 247 0 gusting 2 17.8
2014-Oct-31 00:15 298 0 gusting 2 17.8
2014-Oct-31 00:06 270 1 gusting 2 17.8
2014-Oct-30 23:55 271 0 gusting 2 17.8
2014-Oct-30 23:45 270 1 gusting 2 17.8
2014-Oct-30 23:35 188 0 gusting 2 17.8
2014-Oct-30 23:25 180 0 gusting 1 17.8
2014-Oct-30 23:14 248 17.8
2014-Oct-30 23:05 180 0 gusting 0 17.8
2014-Oct-30 22:55 135 17.8
2014-Oct-30 22:45 180 18.3
2014-Oct-30 22:35 180 18.3
2014-Oct-30 22:25 142 0 gusting 1 18.3
2014-Oct-30 22:15 180 0 gusting 1 18.3
2014-Oct-30 22:05 045 18.3
2014-Oct-30 21:55 045 18.3
2014-Oct-30 21:45 047 18.3
2014-Oct-30 21:35 045 0 gusting 0 18.9
2014-Oct-30 21:25 135 0 gusting 0 18.9
2014-Oct-30 21:15 227 18.9
2014-Oct-30 21:05 113 0 gusting 2 18.3
2014-Oct-30 20:55 112 1 gusting 4 18.3
2014-Oct-30 20:45 090 0 gusting 4 18.3
2014-Oct-30 20:35 090 2 gusting 4 18.9
2014-Oct-30 20:25 103 1 gusting 4 18.9
2014-Oct-30 20:15 090 1 gusting 4 18.9
2014-Oct-30 20:05 090 2 gusting 5 18.9
2014-Oct-30 19:55 090 2 gusting 5 18.9
2014-Oct-30 19:45 121 1 gusting 5 18.9
2014-Oct-30 19:35 090 2 gusting 5 19.4
2014-Oct-30 19:25 107 1 gusting 4 19.4
2014-Oct-30 19:15 090 2 gusting 4 19.4
2014-Oct-30 19:05 090 0 gusting 4 19.4
2014-Oct-30 18:55 090 2 gusting 5 20.0
2014-Oct-30 18:45 090 1 gusting 5 20.0
2014-Oct-30 18:35 092 1 gusting 5 20.0
2014-Oct-30 18:25 122 2 gusting 5 20.6
2014-Oct-30 18:15 090 1 gusting 4 20.6
2014-Oct-30 18:05 135 1 gusting 2 21.1
2014-Oct-30 17:55 096 1 gusting 4 21.1
2014-Oct-30 17:45 180 1 gusting 2 21.1
2014-Oct-30 17:35 166 0 gusting 5 21.7
2014-Oct-30 17:25 090 1 gusting 5 22.2
2014-Oct-30 17:15 090 1 gusting 5 22.2
2014-Oct-30 17:05 135 0 gusting 4 22.8
2014-Oct-30 16:55 154 1 gusting 5 23.3
2014-Oct-30 16:45 106 2 gusting 5 23.9
2014-Oct-30 16:35 113 1 gusting 6 23.9
2014-Oct-30 16:25 160 2 gusting 6 24.4
2014-Oct-30 16:15 123 2 gusting 6 24.4
2014-Oct-30 16:05 129 2 gusting 7 24.4
2014-Oct-30 15:55 135 3 gusting 7 24.4
2014-Oct-30 15:45 090 4 gusting 10 24.4
2014-Oct-30 15:35 099 4 gusting 10 25.0
2014-Oct-30 15:25 080 6 gusting 10 25.0
2014-Oct-30 15:15 094 4 gusting 10 25.0
2014-Oct-30 15:05 105 4 gusting 8 25.6
2014-Oct-30 14:55 087 5 gusting 10 25.6
2014-Oct-30 14:45 098 5 gusting 11 25.6
2014-Oct-30 14:35 107 6 gusting 11 25.6
2014-Oct-30 14:25 100 4 gusting 8 25.6
2014-Oct-30 14:15 059 6 gusting 8 25.6
2014-Oct-30 14:05 091 5 gusting 8 25.6
2014-Oct-30 13:55 076 4 gusting 8 26.1
2014-Oct-30 13:45 045 4 gusting 8 25.6
2014-Oct-30 13:35 090 2 gusting 8 25.6
2014-Oct-30 13:25 103 4 gusting 6 25.6
2014-Oct-30 13:15 105 1 gusting 6 25.6
2014-Oct-30 13:05 090 2 gusting 6 25.0
2014-Oct-30 12:55 104 2 gusting 6 25.0
2014-Oct-30 12:45 291 2 gusting 6 25.0
2014-Oct-30 12:35 099 2 gusting 6 25.0
2014-Oct-30 12:25 082 4 gusting 6 25.0
2014-Oct-30 12:15 072 2 gusting 5 25.0
2014-Oct-30 12:05 135 1 gusting 7 25.6
2014-Oct-30 11:55 090 0 gusting 4 25.0
2014-Oct-30 11:45 050 0 gusting 5 24.4
2014-Oct-30 11:35 092 1 gusting 5 23.9
2014-Oct-30 11:25 090 1 gusting 5 23.3
2014-Oct-30 11:15 045 0 gusting 2 23.9
2014-Oct-30 11:05 045 0 gusting 2 23.9
2014-Oct-30 10:55 131 22.8
2014-Oct-30 10:45 135 22.2
2014-Oct-30 10:35 150 0 gusting 2 21.1
2014-Oct-30 10:25 090 0 gusting 2 20.0
2014-Oct-30 10:15 270 1 gusting 5 19.4
2014-Oct-30 10:05 180 2 gusting 4 18.9
2014-Oct-30 09:55 270 1 gusting 5 18.9
2014-Oct-30 09:45 270 2 gusting 5 18.3
2014-Oct-30 09:35 270 2 gusting 5 18.3
2014-Oct-30 09:25 270 2 gusting 5 18.3
2014-Oct-30 09:15 225 1 gusting 4 18.3
2014-Oct-30 09:05 270 0 gusting 4 17.8
2014-Oct-30 08:55 286 1 gusting 5 17.8
2014-Oct-30 08:45 270 2 gusting 5 17.2
2014-Oct-30 08:35 270 1 gusting 5 17.2
2014-Oct-30 08:25 021 1 gusting 4 17.2
2014-Oct-30 08:15 315 1 gusting 5 17.2
2014-Oct-30 08:05 045 1 gusting 2 17.2
2014-Oct-30 07:55 315 2 gusting 4 16.7
2014-Oct-30 07:45 315 1 gusting 4 16.7
2014-Oct-30 07:35 315 1 gusting 5 16.7
2014-Oct-30 07:25 013 2 gusting 6 16.7
2014-Oct-30 07:15 315 2 gusting 5 17.2
2014-Oct-30 07:05 315 0 gusting 4 17.2
2014-Oct-30 06:55 294 1 gusting 4 17.2
2014-Oct-30 06:45 315 0 gusting 2 17.2
2014-Oct-30 06:35 045 0 gusting 4 17.2
2014-Oct-30 06:25 315 0 gusting 2 17.2
2014-Oct-30 06:15 315 0 gusting 2 17.2
2014-Oct-30 06:05 315 0 gusting 4 17.2
2014-Oct-30 05:55 045 0 gusting 2 17.2
2014-Oct-30 05:45 045 17.2
2014-Oct-30 05:35 315 17.2
2014-Oct-30 05:25 045 17.2
2014-Oct-30 05:15 270 0 gusting 2 17.2
2014-Oct-30 05:05 270 0 gusting 5 17.2
2014-Oct-30 04:55 181 17.2
2014-Oct-30 04:45 260 0 gusting 1 17.2
2014-Oct-30 04:35 315 0 gusting 2 17.2
2014-Oct-30 04:25 315 0 gusting 2 17.2
2014-Oct-30 04:15 299 0 gusting 2 16.7
2014-Oct-30 04:05 315 0 gusting 1 16.7